Theta_e
289 289 287 284 284 284 283 284 280 275 277 281 282 282 282 283 282 281 281 280 279 280 282 283 283 284 284 284 285 285 284 285 285 287 288 287 287 287 287 286 286 286 284 285
278 286 286 276 279 280 283 286 284 281 278 284 283 284 282 281 281 279 280 280 280 280 282 282 283 283 284 284 284 285 283 284 285 286 286 287 287 286 286 285 285 285 283 283
279 284 285 281 277 281 285 286 286 278 280 283 282 281 281 280 280 280 280 280 279 279 281 282 282 283 283 284 284 284 284 283 283 284 284 285 285 285 285 284 283 282 282 282
280 282 275 280 288 287 285 285 283 281 281 282 282 280 280 281 279 280 281 281 280 278 279 282 283 284 284 284 284 283 283 283 283 283 282 283 283 283 283 283 283 281 280 279
279 279 280 283 286 285 282 281 284 282 283 281 282 280 279 281 280 279 280 281 281 280 278 282 282 283 284 283 283 283 282 283 282 281 280 280 280 281 281 280 280 280 279 278
281 279 275 282 288 291 290 278 286 285 282 281 281 277 278 280 281 280 282 281 280 280 280 280 281 282 282 282 281 281 282 282 283 282 280 279 278 279 280 279 278 279 278 277
278 278 282 289 290 293 278 277 287 286 284 283 281 280 280 281 279 280 282 281 281 279 278 278 280 281 279 280 279 281 283 282 283 282 280 279 278 278 277 277 276 275 274 275
280 278 277 290 288 282 284 287 289 288 287 285 281 280 280 280 278 279 280 280 280 278 277 278 279 279 278 278 281 282 281 281 280 281 282 280 277 277 276 275 273 272 272 272
281 280 286 288 287 290 288 286 286 285 285 283 281 280 280 279 281 281 278 277 279 278 277 277 278 278 277 278 281 281 280 279 280 280 280 280 278 276 275 274 273 272 272 271
281 283 285 287 291 291 290 286 287 286 285 284 281 281 281 282 280 279 278 277 277 277 276 275 277 277 277 278 280 279 278 278 279 278 278 278 278 276 274 272 272 272 271 270
281 284 287 289 291 289 288 288 287 287 286 284 283 283 282 281 279 279 278 278 277 276 275 275 276 275 276 277 278 278 277 277 278 278 277 277 277 275 275 270 274 271 267 267
276 284 283 284 290 289 286 286 287 286 285 285 284 283 282 280 279 279 277 277 276 276 275 275 274 274 275 276 277 276 275 275 276 276 276 276 276 276 280 278 279 278 278 274
287 289 288 289 290 289 285 285 286 286 286 284 283 282 281 279 278 280 278 276 275 275 275 274 273 273 274 275 276 276 274 274 275 276 276 275 275 274 270 273 278 279 279 277
291 289 286 288 287 288 287 286 287 285 285 283 282 281 278 278 279 277 275 275 275 275 274 274 273 271 273 274 275 273 271 271 269 268 266 268 266 269 267 265 265 266 273 275
290 291 288 290 290 287 285 284 282 280 280 280 280 278 278 277 275 275 275 275 274 273 272 273 271 269 270 272 273 271 273 268 267 267 267 268 269 268 268 266 264 264 265 267
291 289 288 286 285 284 283 282 280 278 279 278 278 277 278 276 275 275 274 275 274 272 272 267 270 269 271 271 271 272 272 270 269 269 268 267 266 265 267 265 265 264 264 262
286 285 285 284 283 283 282 281 280 278 278 278 278 278 277 276 275 274 273 273 270 270 271 269 266 266 267 265 263 265 267 267 268 269 266 265 264 265 266 263 262 262 261 259
290 288 287 286 283 282 281 281 280 279 279 279 278 276 274 274 273 271 270 269 267 266 266 264 263 263 263 263 262 265 266 267 267 266 266 264 264 265 263 262 262 262 261 264
290 288 287 287 284 282 282 281 280 280 277 274 273 272 271 271 271 269 268 265 262 262 265 262 269 265 262 263 266 266 265 266 266 267 266 264 262 263 262 260 261 260 262 263
289 288 287 285 285 283 282 281 279 276 274 272 271 269 268 268 268 267 264 264 266 268 265 264 264 265 266 267 269 267 266 265 267 265 263 263 260 259 259 262 262 260 257 258
284 283 281 280 276 276 278 277 275 273 269 271 271 268 267 264 266 266 262 264 266 266 268 267 268 269 270 268 266 264 263 262 262 263 262 260 258 259 259 258 258 258 258 258
279 277 275 275 275 273 271 274 274 272 270 269 269 268 267 265 261 261 262 268 272 267 270 271 271 269 269 265 268 263 266 267 265 262 262 260 259 258 260 260 262 263 262 261
277 276 275 274 274 273 271 270 269 270 268 267 267 267 268 270 269 267 268 273 273 269 272 269 266 264 264 261 262 261 262 262 263 263 262 259 259 259 259 260 262 263 266 264
276 275 273 274 274 275 271 269 270 268 266 267 267 268 271 268 267 274 274 269 269 269 265 265 265 265 262 260 261 261 263 264 264 265 267 266 263 259 260 259 262 262 264 267
277 272 273 273 274 274 274 272 271 271 271 273 273 273 272 273 272 275 275 272 272 269 267 267 267 265 264 264 265 264 265 270 269 264 263 265 265 265 264 264 264 264 264 265
280 278 276 276 276 276 275 274 272 273 273 269 269 267 268 269 271 270 268 268 269 268 266 266 267 270 270 271 271 269 268 267 266 265 264 263 261 260 262 260 258 258 261 262
281 281 277 276 277 279 276 275 273 272 271 271 271 273 273 273 274 272 270 267 269 270 272 271 269 269 267 265 263 262 259 261 261 258 254 254 258 257 257 256 255 254 256 258
Wind_Speed
1 6 6 1 3 2 3 3 5 6 7 10 7 6 6 5 4 5 7 9 10 10 11 11 13 15 15 16 16 16 16 18 19 19 18 20 20 20 20 19 20 21 25 20
2 5 5 3 5 5 5 3 5 8 4 7 8 9 7 5 5 5 8 9 9 8 11 11 12 12 12 13 15 14 17 17 16 17 18 18 19 19 19 20 19 19 19 18
5 5 4 6 10 9 4 2 7 7 6 13 11 9 6 6 4 5 6 6 5 6 6 8 7 9 11 11 12 11 13 15 15 15 17 17 17 18 18 19 18 18 17 18
2 5 5 4 2 7 5 5 6 10 14 12 10 7 5 4 4 3 5 5 4 1 4 6 6 5 7 8 9 12 13 14 15 15 16 15 16 17 17 14 14 15 16 16
4 5 0 2 7 7 7 7 9 12 12 13 12 10 6 5 2 3 1 5 5 3 2 4 6 6 5 8 7 11 11 11 13 14 14 15 16 15 14 12 12 14 15 15
3 1 4 2 6 7 9 5 15 14 14 16 15 4 5 8 4 4 3 6 6 6 6 6 5 6 5 5 9 8 10 8 8 12 13 15 15 14 13 11 13 11 14 16
2 3 2 3 7 4 4 6 13 15 15 15 9 1 9 8 5 3 3 7 8 7 6 6 6 6 9 6 8 9 7 10 8 8 11 12 12 12 11 11 11 11 12 12
3 3 5 3 5 3 3 3 7 12 14 10 12 12 11 7 6 5 4 8 8 6 6 6 8 8 10 11 8 8 10 8 10 6 8 6 8 8 9 9 11 12 13 11
2 1 2 3 3 4 6 5 5 11 13 16 15 12 10 8 6 5 7 6 6 7 6 6 7 8 10 11 9 10 10 10 11 10 8 8 9 10 8 9 9 9 10 10
4 2 3 2 3 5 8 10 12 13 14 13 14 12 9 7 7 7 6 6 7 7 6 7 8 10 10 11 11 10 10 11 8 9 9 7 5 5 5 5 7 8 8 8
3 4 5 3 3 9 11 13 14 13 13 13 13 11 9 6 9 8 7 7 6 6 6 8 8 9 10 10 10 9 9 9 8 7 8 7 4 3 3 1 5 4 1 1
6 10 6 7 7 9 9 10 11 13 14 12 10 10 10 9 8 8 7 7 6 6 7 9 8 8 9 9 9 8 9 7 7 5 6 6 5 6 11 8 8 10 13 9
4 12 4 12 12 7 7 6 9 11 11 12 10 9 10 8 6 10 8 7 6 6 8 8 6 7 7 7 6 6 4 5 5 6 5 6 6 7 5 6 13 15 15 18
11 14 10 10 8 11 10 8 10 7 8 8 11 11 11 9 8 8 6 6 8 8 8 7 6 6 6 6 6 7 2 5 3 4 3 3 3 4 3 2 4 5 9 12
7 6 8 11 13 11 9 8 8 7 7 8 9 10 10 7 8 8 6 6 8 8 7 5 5 4 5 6 6 7 2 1 2 3 2 4 4 4 4 4 3 3 3 5
6 11 8 10 11 10 10 8 8 7 7 6 8 9 7 9 8 7 6 4 7 5 5 3 4 2 4 5 6 6 4 4 4 2 3 3 3 2 4 3 3 3 3 2
8 8 8 9 9 10 9 7 7 7 8 8 8 8 10 10 9 7 6 6 6 5 5 4 3 1 2 3 3 3 4 2 5 4 3 1 1 3 2 2 2 2 3 2
7 7 9 9 10 8 8 8 9 9 7 8 8 9 8 8 7 7 6 5 4 3 2 4 3 1 2 3 3 3 3 2 3 2 2 2 3 2 2 2 3 2 3 3
9 9 9 10 10 9 8 8 9 8 8 8 8 7 6 6 7 6 6 5 3 2 5 5 5 3 3 5 3 2 3 3 3 3 2 2 3 2 2 2 3 3 3 3
7 8 9 9 9 8 8 7 9 8 7 8 9 8 7 6 7 6 4 4 5 4 6 6 5 4 4 5 3 2 3 3 3 3 2 2 2 3 3 4 3 3 3 3
8 8 8 8 5 5 9 9 10 9 5 8 10 8 7 6 6 6 4 2 5 6 6 7 5 3 1 4 2 2 2 3 3 3 3 3 3 4 4 4 4 4 4 3
5 7 7 8 8 7 5 7 9 9 7 7 7 7 8 6 4 3 4 4 3 7 4 4 4 6 3 2 1 2 3 4 4 3 3 3 3 3 4 4 5 5 5 5
6 6 7 7 8 8 7 6 6 8 8 7 8 7 7 6 5 4 3 5 6 6 4 3 5 6 6 3 3 3 4 4 4 4 4 4 3 3 3 3 4 5 6 5
6 6 5 6 8 8 8 3 6 5 6 6 6 7 6 3 2 4 2 5 5 6 3 3 5 6 6 3 3 4 5 5 4 4 4 3 3 3 3 3 4 4 4 7
6 4 6 6 6 4 7 6 6 6 6 6 6 5 5 2 4 3 5 3 6 5 3 5 6 6 4 5 5 4 4 3 3 3 4 3 5 5 4 5 8 8 8 9
6 4 4 5 4 5 6 6 5 5 5 4 3 4 3 2 3 4 3 4 3 3 2 1 1 3 4 4 5 6 6 5 6 6 7 6 5 4 7 7 6 6 7 8
4 5 4 1 1 6 6 6 5 5 5 5 5 6 5 4 4 4 4 3 3 4 5 6 6 7 6 5 5 5 4 5 7 4 3 4 7 6 7 6 5 4 5 6
Wind_Direction
109 170 134 358 38 6 252 264 241 194 146 168 148 152 122 123 86 53 57 41 28 11 4 11 14 12 11 14 15 11 19 24 25 26 31 40 47 52 53 45 44 41 45 36
290 241 169 181 212 206 269 206 111 115 115 122 144 134 133 119 98 78 56 59 35 18 4 8 20 17 15 18 13 13 23 24 21 25 27 35 41 45 48 49 49 53 56 48
252 191 189 253 208 193 191 114 181 186 179 149 163 152 146 135 112 95 82 88 51 14 358 5 12 15 17 21 21 26 30 29 28 31 40 36 40 45 47 49 46 48 47 41
219 108 223 262 269 176 167 114 111 109 142 165 137 117 116 112 128 77 102 100 123 315 344 16 7 21 22 19 25 31 36 36 33 33 39 37 40 45 45 47 49 51 50 44
165 203 244 208 209 167 146 203 154 147 132 126 125 122 136 139 178 241 157 112 149 173 254 38 24 5 34 28 24 32 31 41 39 39 40 39 39 40 45 45 44 46 49 43
336 289 235 293 165 156 222 256 161 150 148 151 161 207 161 157 194 268 349 114 102 83 57 49 34 12 27 52 41 35 33 30 52 50 47 44 35 34 36 37 38 39 41 40
195 232 122 62 113 80 163 250 148 153 158 166 180 286 133 140 187 255 285 114 96 82 65 35 37 33 21 26 58 38 24 31 33 59 58 53 42 36 32 39 37 39 36 31
183 218 220 122 81 199 199 72 139 156 161 153 123 126 135 161 197 218 151 103 98 87 73 51 42 40 31 23 39 54 35 30 34 50 54 83 56 48 45 43 41 36 32 26
113 131 99 350 117 151 108 85 82 93 114 132 137 142 154 178 194 170 109 101 99 94 75 54 44 37 39 17 27 37 44 28 31 31 43 47 53 44 41 39 44 40 33 26
110 138 119 15 68 101 108 111 109 111 121 128 131 147 168 173 134 104 99 98 90 86 83 65 47 37 36 22 14 44 35 34 32 28 32 42 46 58 56 40 41 43 37 28
65 148 124 244 120 110 103 111 120 128 133 136 145 158 151 134 118 111 98 91 90 94 85 78 56 41 28 28 21 35 32 21 22 33 27 25 33 45 69 1 71 89 71 86
214 190 161 172 131 113 119 129 139 138 135 140 146 144 121 110 109 109 110 101 86 80 88 75 62 45 26 17 28 22 32 15 3 19 18 13 18 16 22 47 77 62 48 44
167 162 134 139 131 112 125 126 122 129 137 133 131 126 115 108 106 104 98 97 95 88 91 85 68 49 20 7 10 19 56 21 4 7 17 14 17 17 6 350 13 16 44 32
107 106 113 147 148 150 156 156 149 145 134 121 121 114 115 120 117 111 100 101 95 83 79 92 81 52 10 0 7 345 86 27 13 351 355 9 6 14 8 13 358 345 27 34
137 103 142 141 152 145 131 129 122 117 113 108 112 119 126 133 120 120 118 111 109 97 75 81 82 28 7 0 7 330 78 28 2 337 356 25 24 7 353 359 355 327 343 2
143 130 131 136 137 136 133 136 132 134 124 121 124 136 140 119 118 106 92 67 139 117 111 97 100 38 16 8 353 343 349 32 15 355 14 32 7 356 345 353 353 351 351 284
129 148 142 146 146 144 153 147 145 145 141 142 146 133 128 130 125 119 105 97 104 115 158 152 164 178 336 348 346 313 325 340 11 9 17 65 348 339 332 356 334 333 305 289
149 146 144 147 147 144 148 150 147 150 155 150 139 134 136 143 147 132 123 119 110 39 131 171 181 237 303 263 308 307 304 344 19 332 329 9 329 335 359 331 319 325 304 309
129 129 140 138 142 142 150 147 153 145 136 135 130 137 131 126 130 136 136 129 146 197 244 184 214 207 257 238 264 304 353 341 333 309 307 327 339 313 316 312 306 305 309 314
111 128 134 135 137 142 148 133 129 125 132 123 118 119 117 123 132 139 133 182 199 217 157 185 199 229 253 231 252 285 302 267 275 282 293 306 295 294 291 287 283 279 282 279
97 97 103 106 94 90 123 133 127 133 129 131 140 149 145 143 136 142 126 210 248 178 170 176 200 234 170 154 241 312 308 298 286 267 274 273 288 282 277 275 272 263 269 261
110 106 111 110 108 91 75 110 117 124 125 122 122 131 131 146 145 189 213 189 161 172 176 204 213 224 160 217 236 275 282 286 274 274 278 272 267 273 276 270 269 271 267 259
107 115 114 119 127 122 97 92 109 132 140 144 147 150 156 171 171 162 234 217 180 189 201 223 150 155 176 200 231 256 271 269 273 265 255 247 248 259 265 278 284 281 290 278
106 107 108 107 115 115 121 134 125 132 136 144 154 165 163 159 228 214 172 124 143 168 206 165 185 192 203 211 232 250 261 265 268 276 290 319 306 301 306 300 304 303 295 306
109 118 116 127 131 139 132 145 127 142 147 156 166 172 192 191 143 117 114 138 159 172 209 240 217 226 223 221 231 258 280 314 2 26 10 6 3 1 348 5 16 11 6 2
136 140 143 155 156 145 143 158 155 164 166 162 161 167 181 214 139 142 147 151 154 183 190 300 24 32 34 38 36 41 39 32 31 31 30 18 354 353 28 18 1 351 350 344
174 140 126 157 230 151 153 169 151 173 177 163 169 178 177 168 144 133 125 105 77 73 71 68 62 57 52 44 41 35 26 47 49 27 355 17 34 23 12 358 344 331 330 351